Cloud_Cover
92 92 92 88 80 76 68 68 64 64 56 64 56 64 68 68 64 56 44 48 48 44 36 32 24 24 20 20 12 12 8 8 8 8 0 0 0 0 0 0 0 0 0 0 0 0 0 0 0 0 0 0 0 0 0 0 0 0 0 0 0 0 0 0 0 0 0 0 12
92 92 88 88 88 80 76 68 76 68 56 56 48 56 68 68 56 56 48 48 44 44 32 20 20 20 20 20 20 12 12 12 12 8 8 8 0 0 0 0 0 0 0 0 0 0 0 0 0 0 0 0 0 0 0 0 0 0 0 0 0 0 0 0 0 0 0 0 8
92 88 80 80 88 88 88 88 88 80 76 68 76 76 76 68 64 56 56 48 44 36 32 20 20 24 32 32 24 20 20 12 12 12 12 8 8 0 0 0 0 0 0 0 0 0 0 0 0 0 0 0 0 0 0 0 0 0 0 0 0 0 0 0 0 0 0 0 0
80 80 80 80 88 88 88 88 88 80 80 80 80 76 68 68 64 56 56 48 44 44 36 32 32 32 32 36 32 24 20 20 12 12 12 8 8 8 0 0 0 0 0 0 0 0 0 0 0 0 0 0 0 0 0 0 0 0 0 0 0 0 0 0 0 0 0 0 0
68 68 76 76 76 68 68 64 68 76 80 80 80 76 68 64 56 48 48 48 48 44 44 32 32 32 32 24 20 20 20 20 20 12 12 12 8 0 0 0 0 0 0 0 0 0 0 0 0 0 0 0 0 0 0 0 0 0 0 0 0 0 0 0 0 0 0 0 0
68 68 68 68 68 68 68 68 76 76 76 80 88 80 68 64 56 48 48 48 48 44 36 32 32 24 20 20 20 20 20 20 20 20 20 12 8 0 0 0 0 0 0 0 0 0 0 0 0 0 0 0 0 0 0 0 0 0 0 0 0 0 0 0 0 0 0 0 0
88 80 76 68 76 76 80 88 88 76 64 68 76 76 68 64 56 56 56 48 44 36 32 24 20 20 20 20 20 24 24 24 20 12 12 8 0 0 0 0 0 0 0 0 0 0 0 0 0 0 0 0 0 0 0 0 0 0 0 0 0 0 0 0 0 0 0 0 0
80 88 88 92 92 92 92 88 68 64 64 64 64 64 64 64 64 64 56 48 44 32 20 12 12 12 20 20 20 20 20 12 8 0 0 0 0 0 0 0 0 0 0 0 0 0 0 0 0 0 0 0 0 0 0 0 0 0 0 0 0 0 0 0 0 0 0 0 0
92 92 92 92 88 80 76 56 64 64 56 64 64 68 68 68 64 64 56 48 32 20 12 8 8 12 12 8 8 8 0 0 0 0 0 0 0 0 0 0 0 0 0 0 0 0 0 0 0 0 0 0 0 0 0 0 0 0 0 0 0 0 0 0 0 0 0 0 0
92 92 88 76 64 64 68 68 64 64 64 64 68 68 68 68 56 48 36 32 20 12 8 8 8 8 8 0 0 0 0 0 0 0 0 0 0 0 0 0 0 0 0 0 0 0 0 0 0 0 0 0 0 0 0 0 0 0 0 0 0 0 0 0 0 0 0 0 0
92 80 68 68 76 76 76 76 76 76 76 76 68 64 64 56 48 36 24 20 12 12 12 8 8 0 0 0 0 0 0 0 0 0 0 0 0 0 0 0 0 0 0 0 0 0 0 0 0 0 0 0 0 0 0 0 0 0 0 0 0 0 0 0 0 0 0 0 0
80 76 76 80 80 80 76 68 80 80 76 64 56 48 44 44 48 36 20 20 20 12 12 8 0 0 0 0 0 0 0 0 0 0 0 0 0 0 0 0 0 0 0 0 0 0 0 0 0 0 0 0 0 0 0 0 0 0 0 0 0 0 0 0 0 0 0 0 0
80 80 80 88 80 76 68 68 76 68 56 56 44 36 36 44 36 24 20 20 20 12 8 0 0 0 0 0 0 0 0 0 0 0 0 0 0 0 0 0 0 0 0 0 0 0 0 0 0 0 0 0 0 0 0 0 0 0 0 0 0 0 0 0 0 0 0 0 0
76 76 80 88 76 64 64 56 56 48 44 44 32 24 24 32 20 20 20 12 12 8 0 0 0 0 0 0 0 0 0 0 0 0 0 0 0 0 0 0 0 0 0 0 0 0 0 0 0 0 0 0 0 0 0 0 0 0 0 0 0 0 0 0 0 0 0 0 0
80 80 80 76 68 64 56 56 56 44 36 32 24 20 12 20 12 12 8 8 0 0 0 0 0 0 0 0 0 0 0 0 0 0 0 0 0 0 0 0 0 0 0 0 0 0 0 0 0 0 0 0 0 0 0 0 0 0 0 0 0 0 0 0 0 0 0 0 0
92 80 68 64 64 56 56 56 48 36 32 24 20 12 12 12 8 8 0 0 0 0 0 0 0 0 0 0 0 0 0 0 0 0 0 0 0 0 0 0 0 0 0 0 0 0 0 0 0 0 0 0 0 0 0 0 0 0 0 0 0 0 0 0 0 0 0 0 0
80 68 64 64 64 56 48 44 36 32 24 20 12 8 8 8 8 0 0 0 0 0 0 0 0 0 0 0 0 0 0 0 0 0 0 0 0 0 0 0 0 0 0 0 0 0 0 0 0 0 0 0 0 0 0 0 0 0 0 0 0 0 0 0 0 0 0 0 0
68 68 68 64 64 56 44 44 36 32 20 12 12 8 8 0 0 0 0 0 0 0 0 0 0 0 0 0 0 0 0 0 0 0 0 0 0 0 0 0 0 0 0 0 0 0 0 0 0 0 0 0 0 0 0 0 0 0 0 0 0 0 0 0 8 8 0 0 0
68 68 64 64 56 48 44 44 36 24 20 12 8 8 0 0 0 0 0 0 0 0 0 0 0 0 0 0 0 0 0 0 0 0 0 0 0 0 0 0 0 0 0 0 0 0 0 0 0 0 0 0 32 48 48 48 48 48 48 48 48 48 48 48 44 36 32 32 8
68 64 56 48 48 48 44 44 32 24 12 12 8 8 0 0 0 0 0 8 8 8 8 8 8 0 0 0 0 0 0 0 0 0 0 0 0 0 0 0 0 0 0 0 0 0 0 0 0 0 8 32 76 88 88 88 88 88 88 88 88 88 88 88 80 64 56 64 56
64 56 48 48 48 48 44 36 32 20 12 12 8 8 0 0 0 0 8 8 12 12 12 8 0 0 0 0 0 0 0 0 0 0 0 0 0 0 0 0 0 0 0 0 0 0 12 32 48 56 64 76 80 88 88 88 88 88 88 88 80 88 80 64 80 76 68 80 88
56 48 48 48 48 44 36 32 24 20 20 12 8 8 8 8 8 8 8 12 12 12 8 0 0 0 0 0 0 0 0 0 0 0 0 0 0 0 0 0 12 20 12 20 24 44 64 64 80 88 88 88 88 88 88 88 88 88 88 88 80 68 64 76 64 68 80 76 88
56 56 48 48 44 36 36 32 24 20 20 12 12 12 12 8 8 12 12 12 8 8 0 0 0 0 0 0 0 0 0 0 0 0 0 0 0 0 8 20 56 68 68 68 68 80 80 80 80 88 88 88 80 80 88 88 88 88 88 88 88 80 76 88 76 80 76 48 80
56 56 48 48 44 36 36 36 32 24 20 20 12 12 12 12 12 12 12 12 8 0 0 0 0 0 0 0 0 0 0 0 0 0 0 0 0 0 20 76 80 88 88 88 64 68 88 88 80 80 88 88 80 80 80 80 80 80 80 80 88 88 88 88 88 88 80 76 80
56 56 48 44 44 44 44 36 32 24 24 20 20 12 12 12 20 12 12 8 0 0 0 0 0 0 0 0 0 0 0 0 0 0 0 0 0 36 76 88 48 48 64 64 76 80 88 88 80 80 80 88 88 88 80 88 88 80 80 80 80 80 80 88 88 88 88 88 88
48 48 48 48 48 44 44 36 32 24 24 20 20 12 12 20 12 12 8 0 0 0 0 0 0 0 0 0 0 0 0 0 0 0 0 0 20 56 88 88 56 64 76 80 80 80 88 88 80 88 88 80 80 80 80 80 88 88 88 88 88 80 80 88 88 88 88 88 88
48 48 48 48 48 48 44 44 32 24 20 20 20 20 20 12 12 8 0 0 0 0 0 0 0 0 0 0 0 0 0 0 0 0 0 0 8 48 88 88 56 64 80 80 80 80 68 56 76 80 88 88 88 80 80 80 88 88 80 64 80 76 64 64 80 88 88 88 88
48 48 48 48 48 44 44 44 32 24 20 20 24 20 12 12 8 0 0 0 0 0 0 0 0 0 0 0 0 0 0 0 0 0 0 0 0 36 76 80 36 48 80 80 80 80 80 80 80 88 88 88 88 88 88 80 88 88 88 80 88 88 88 88 88 88 88 88 88
48 48 48 48 48 44 44 44 32 24 20 24 12 12 8 0 0 0 0 0 0 0 0 0 0 0 0 0 0 0 0 0 0 0 0 0 0 32 68 80 80 76 76 88 76 76 88 88 88 88 88 92 92 88 88 88 88 88 88 88 88 88 88 88 88 88 88 88 88
48 48 48 48 44 44 44 44 24 24 20 12 8 8 0 0 0 0 0 0 0 0 0 0 0 0 0 0 0 0 0 0 0 0 0 0 24 64 76 56 76 80 80 80 80 88 88 88 88 88 88 88 92 92 92 88 88 88 88 88 88 88 88 88 88 88 88 88 88
44 44 44 36 44 48 44 36 24 20 12 8 0 0 0 0 0 0 0 0 0 0 0 0 0 0 0 0 0 0 0 0 0 0 0 0 48 64 64 80 64 68 80 80 88 76 68 88 88 88 88 92 92 92 92 92 92 88 88 92 92 88 88 92 88 88 88 88 88
44 36 36 44 44 36 32 24 20 12 0 0 0 0 0 0 0 0 0 0 0 0 0 0 0 0 0 0 0 0 0 0 0 0 12 36 68 80 80 80 80 80 80 76 80 80 88 88 88 88 88 92 92 92 92 92 88 88 88 88 92 92 92 92 92 92 92 92 92
44 44 36 36 36 32 24 12 0 0 0 0 0 0 0 0 0 0 0 0 0 0 0 0 0 0 0 0 0 0 0 0 0 12 44 80 80 80 80 80 80 80 64 32 48 68 80 88 76 80 92 92 92 92 92 92 88 88 88 92 92 92 92 92 92 92 92 92 92
44 44 36 32 24 20 12 8 0 0 0 0 0 0 0 0 0 0 0 0 0 0 0 0 0 0 0 0 0 0 0 0 0 0 20 76 80 80 80 80 80 64 44 36 36 48 64 64 76 88 92 92 88 88 88 88 88 88 92 92 92 92 92 92 92 92 92 92 92
36 32 32 24 20 12 8 0 0 0 0 0 0 0 0 0 0 0 0 0 0 0 0 0 0 0 0 0 0 0 0 0 0 12 32 56 76 80 80 80 80 80 68 20 24 36 56 68 80 88 92 88 88 88 88 88 88 88 88 92 92 92 92 92 92 92 92 92 92
24 24 20 12 8 8 8 0 0 0 0 0 0 0 0 0 0 0 0 0 0 0 0 0 0 0 0 0 0 0 0 0 24 56 80 80 80 80 76 68 80 76 48 12 24 48 76 88 88 92 88 88 88 88 92 88 88 88 88 88 92 88 88 92 92 92 92 92 92
20 12 8 8 8 8 0 0 0 0 0 0 0 0 0 0 0 0 0 0 0 0 0 0 0 0 0 0 0 0 0 8 56 76 80 80 80 80 80 80 68 44 20 24 44 68 88 92 92 92 92 92 92 92 92 92 88 88 88 88 92 92 92 92 92 92 88 92 92
12 8 0 0 0 0 0 0 0 0 0 0 0 0 0 0 0 0 0 0 0 0 0 0 0 0 0 0 0 0 8 24 48 68 80 80 80 80 80 80 56 32 24 32 48 76 88 92 92 92 92 92 92 92 92 92 88 88 88 92 92 92 92 92 92 88 88 92 92
8 0 0 0 0 0 0 0 0 0 0 0 0 0 0 0 0 0 0 0 0 0 0 0 0 0 0 0 8 12 20 24 68 80 80 80 80 80 80 80 64 32 12 20 48 80 92 92 92 92 92 92 92 92 92 92 88 92 92 92 92 92 92 92 92 92 92 92 92
8 8 0 0 0 0 0 0 0 0 0 0 0 0 0 0 0 0 0 0 0 0 0 0 0 0 0 0 24 24 20 12 64 80 80 80 80 80 80 80 44 24 20 20 64 80 88 92 92 92 92 92 92 92 92 92 88 88 88 88 88 88 92 92 92 92 92 92 92
12 8 0 0 0 0 0 0 0 0 0 0 0 0 0 0 0 0 0 0 0 0 0 0 0 0 0 8 44 48 36 12 44 68 80 80 80 80 80 80 68 48 36 24 68 80 88 92 92 92 92 92 92 92 88 88 88 80 80 80 88 92 92 92 92 92 92 92 92